Starlink 35067

operational
NORAD ID: 65527 Int'l Des: 2025-200 Owner: SPXS Country: US Constellation: starlink
LEOCIRCULARRETROGRADE

关于 Starlink 35067

正在加载描述...

实时位置

正在加载3D地球...

即将过境

高度历史

Altitude vs Time

uPlot chart will show altitude changes over time

两行轨道根数

1 65527U 25200H 25353.17929038 .00004040 00000-0 28398-3 0 9992
2 65527 97.6051 60.3927 0001613 93.3303 266.8108 15.05656184 17015
Epoch: Dec 19, 2025 • Age: 17 hours

当前状态

高度 578.9 km
速度 7.57 km/s
星下点 -81.50°S, 128.26°E
发射日期 Sep 6, 2025
运行时间 0.2 years
类型 internet

技术详情

分类 Payload
质量 575.00 kg
干质量 530.00 kg
总质量 575.00 kg
长度 0.30 m
直径 4.10 m
跨度 29.00 m
形状 Box + pan
制造商 SPXS
平台类型 Starlink V2MO
阶段状态 In Orbit
所有者/国家 SPXS/US

大型星座

Loading constellations...